Flag for Canada Weather past 2 weeks in Saint John, New Brunswick, Canada

Now
77 °F

Scattered clouds.


Feels Like: 78 °F
Forecast: 53 / 76 °F
Wind: 9 mph from Northwest

Location: Saint John

Current Time: Jul 25, 2014 at 3:50:21 PM

Latest Report: Jul 25, 2014 at 3:00 PM


Visibility: 15 mi

Pressure: 29.83 "Hg

Humidity: 44%

Dew point: 54 °F

Location of Saint JohnLocation

Historic Weather in Saint John — Graph

°F

Saint John temperature yesterday

Maximum temperature yesterday: 66 °F (at 6:00 PM)
Minimum temperature yesterday: 59 °F (at 1:00 AM)
Average temperature yesterday: 62 °F

Past Weeks' High & Low Weather Summary

 TemperatureHumidityPressure
High81 °F (Jul 19, 3:00 PM)100% (Jul 11, 12:00 AM)30.27 "Hg (Jul 11, 12:00 AM)
Low45 °F (Jul 12, 5:00 AM)34% (Jul 12, 12:00 PM)29.75 "Hg (Jul 24, 5:00 AM)
Average63 °F85%30.02 "Hg
* Reported Jul 10 2:00 PM — Jul 25 2:00 PM, Saint John, Weather by CustomWeather, © 2014

Note: Actual official high and low records may vary slightly from our data, if they occured in-between our weather recording intervals... More about our weather records

Advertising

Saint John weather history for previous 24 hours

 ConditionsComfort  
Time TempWeatherWind HumidityBarometerVisibility
2:00 PM
Jul 25
73 °FPartly sunny.7 mph44%29.85 "Hg15 mi
1:00 PM70 °FPartly sunny.3 mph57%29.86 "Hg15 mi
12:00 PM70 °FOvercast.3 mph60%29.87 "Hg15 mi
11:00 AM66 °FMore clouds than sun.3 mph73%29.88 "Hg15 mi
10:00 AM63 °FBroken clouds.5 mph77%29.88 "Hg15 mi
9:00 AM59 °FBroken clouds.No wind100%29.88 "Hg15 mi
8:00 AM55 °FBroken clouds.No wind100%29.88 "Hg15 mi
7:00 AM52 °FPartly sunny.2 mph100%29.86 "Hg15 mi
6:00 AM52 °FPassing clouds.2 mph100%29.86 "Hg15 mi
5:00 AM52 °FPassing clouds.No wind100%29.85 "Hg15 mi
4:00 AM50 °FFog.2 mph100%29.85 "Hg5 mi
3:00 AM52 °FFog.No wind100%29.83 "Hg5 mi
2:00 AM54 °FFog.2 mph100%29.83 "Hg1 mi
1:00 AM57 °FFog.No wind100%29.83 "Hg1 mi
12:50 AM55 °FFog.No wind100%29.83 "Hg1 mi
12:00 AM57 °FFog.No wind100%29.83 "Hg5 mi
11:00 PM
Jul 24
59 °FFog.No wind100%29.82 "Hg5 mi
10:00 PM61 °FPassing clouds.2 mph100%29.82 "Hg15 mi
9:00 PM64 °FBroken clouds.3 mph94%29.80 "Hg15 mi
8:00 PM64 °FBroken clouds.No wind94%29.80 "Hg15 mi
7:00 PM64 °FBroken clouds.7 mph94%29.79 "Hg15 mi
6:00 PM66 °FPartly sunny.8 mph88%29.79 "Hg15 mi
5:00 PM64 °FMore clouds than sun.7 mph100%29.79 "Hg15 mi
4:52 PM64 °FMore clouds than sun.9 mph100%29.79 "Hg15 mi
4:00 PM64 °FSprinkles. More clouds than sun.8 mph100%29.80 "Hg10 mi
3:00 PM64 °FSprinkles. Mostly cloudy.8 mph100%29.80 "Hg8 mi
Weather by CustomWeather, © 2014

See weather overviewHow to use our weather pages